Flag for Germany Weather past 2 weeks in Jülich, North Rhine-Westphalia, Germany

Now
41 °F

Partly cloudy.


Feels Like: 36 °F
Forecast: 35 / 45 °F
Wind: 8 mph from Southwest

Location: Geilenkirchen Airport

Current Time: Mar 3, 2015 at 8:03:51 PM

Latest Report: Mar 3, 2015 at 6:50 PM


Visibility: N/A

Pressure: 30.01 "Hg

Humidity: 87%

Dew point: 37 °F

Location of JülichLocation

Historic Weather in Jülich — Graph

°F

Jülich temperature yesterday

Maximum temperature yesterday: 48 °F (at 12:50 AM)
Minimum temperature yesterday: 36 °F (at 3:50 PM)
Average temperature yesterday: 42 °F

Past Weeks' High & Low Weather Summary

 TemperatureHumidityPressure
High50 °F (Feb 26, 12:50 PM)100% (Feb 17, 12:50 AM)30.77 "Hg (Feb 17, 12:50 AM)
Low28 °F (Feb 17, 12:50 AM)46% (Mar 2, 1:50 PM)29.39 "Hg (Feb 23, 4:50 AM)
Average40 °F82%30.01 "Hg
* Reported Feb 16 7:50 PM — Mar 3 6:50 PM, Jülich, Weather by CustomWeather, © 2015

Note: Actual official high and low records may vary slightly from our data, if they occured in-between our weather recording intervals... More about our weather records

Advertising

Jülich weather history for previous 24 hours

 ConditionsComfort  
Time TempWeatherWind HumidityBarometerVisibility
6:50 PM
Tue, Mar 3
41 °FPartly cloudy.8 mph87%30.01 "HgN/A
5:50 PM41 °FBroken clouds.8 mph93%30.01 "HgN/A
4:50 PM39 °FRain showers. Partly sunny.18 mph87%30.01 "Hg2 mi
3:50 PM45 °FSprinkles. Broken clouds.12 mph81%29.98 "Hg5 mi
2:50 PM45 °FSprinkles. Cloudy.17 mph76%29.98 "Hg6 mi
1:50 PM48 °FSprinkles. Broken clouds.20 mph54%29.98 "HgN/A
12:50 PM46 °FBroken clouds.21 mph57%30.01 "HgN/A
11:50 AM45 °FBroken clouds.15 mph61%30.04 "Hg10 mi
10:50 AM43 °FSunny.14 mph66%30.07 "Hg10 mi
9:50 AM41 °FLight rain. Broken clouds.12 mph76%30.07 "HgN/A
8:50 AM41 °FPartly sunny.12 mph70%30.07 "HgN/A
7:50 AM39 °FPartly sunny.10 mph75%30.07 "HgN/A
6:50 AM37 °FPassing clouds.12 mph81%30.07 "HgN/A
5:50 AM37 °FClear.10 mph81%30.07 "Hg10 mi
4:50 AM37 °FClear.13 mph81%30.07 "Hg10 mi
3:50 AM39 °FPassing clouds.12 mph75%30.07 "HgN/A
2:50 AM37 °FClear.10 mph81%30.07 "Hg10 mi
1:50 AM39 °FClear.14 mph75%30.04 "Hg10 mi
12:50 AM39 °FClear.13 mph75%30.04 "Hg10 mi
11:50 PM
Mon, Mar 2
39 °FClear.14 mph75%30.01 "Hg10 mi
10:50 PM39 °FClear.13 mph75%29.98 "Hg10 mi
9:50 PM39 °FClear.14 mph70%29.98 "Hg10 mi
8:50 PM41 °FPassing clouds.16 mph61%29.92 "HgN/A
Weather by CustomWeather, © 2015

See weather overviewHow to use our weather pages